Regional Weather Roundup
Issued by NWS

Home | Current Version | Previous Version | Graphics & Text | Print | Product List | Glossary On
Versions: 1 2 3 4 5 6 7 8 9 10 11 12 13 14 15 16 17 18 19 20 21 22 23 24 25 26 27 28 29 30 31 32 33 34 35 36 37 38 39 40 41 42 43 44 45 46 47 48 49 50
000
ASUS43 KIND 261409
RWRIN

WEATHER ROUNDUP FOR INDIANA
NATIONAL WEATHER SERVICE INDIANAPOLIS IN
1000 AM EDT TUE MAY 26 2015

NOTE: "FAIR" INDICATES FEW OR NO CLOUDS BELOW 12,000 FEET WITH NO
SIGNIFICANT WEATHER AND/OR OBSTRUCTIONS TO VISIBILITY.

* - STATION DOES NOT REPORT WEATHER SUCH AS PRECIPITATION OR FOG.

+ - STATION NOT QUALITY CONTROLLED BY THE NATIONAL WEATHER SERVICE.
    USE DATA WITH CAUTION...ESPECIALLY DEWPOINT AND RELATIVE
    HUMIDITY OBSERVATIONS.

INZ001>003-010>013-019-020-261500-
NORTHWEST INDIANA

CITY           SKY/WX    TMP DP  RH WIND       PRES   REMARKS
GARY /AIRPORT/ CLOUDY    72  66  83 S14       29.95F
KNOX *+        CLOUDY    70  64  83 S12       29.98F
LA PORTE +     CLOUDY    71  67  87 S10       29.99F
MICHIGAN CITY+ CLOUDY    70  63  78 S6        29.98S
MONTICELLO +   CLOUDY    70  67  89 S9        29.98F
RENSSELAER +   CLOUDY    70  68  94 SE12      29.97F
VALPARAISO     CLOUDY    71  64  78 S14G22    29.97F

$$

LMZ046-743>745-261500-
SOUTHERN LAKE MICHIGAN

STATION/POSITION TIME  TEMP    WIND        PRES    WAVE
                       AIR SEA DIR/SP/G            HT
                 (UTC) (F)     (DEG/KT/KT) (MB)    (FT)
BURNS HARBOR     1400   71     170/  9/ 19 1014.9S
MICHIGAN CITY    1400   70     150/ 13/ 18   N/A
5NW MICH CITY    1400   64 52  180/ 10/ 12   N/A     1

$$

INZ004-005-014>016-021>024-261500-
NORTH CENTRAL INDIANA

CITY           SKY/WX    TMP DP  RH WIND       PRES   REMARKS
ELKHART        CLOUDY    70  64  83 S8        30.02F
GOSHEN         CLOUDY    71  64  78 S15       30.02F
LOGANSPORT +   CLOUDY    70  63  78 S15       30.01F
PERU/GRISSOM   MOSUNNY   73  66  79 S14       30.00F
ROCHESTER +    CLOUDY    72  68  88 S7        30.02F
SOUTH BEND     CLOUDY    71  65  81 S10       30.00F
WARSAW +       CLOUDY    70  64  83 S5        30.03S

$$

INZ006>009-017-018-025>027-261500-
NORTHEAST INDIANA

CITY           SKY/WX    TMP DP  RH WIND       PRES   REMARKS
ANGOLA *+      CLOUDY    70  64  83 SW6       30.04F
AUBURN +       CLOUDY    72  63  73 S7        30.06S
FORT WAYNE     PTSUNNY   74  65  73 S21G26    30.06S
HUNTINGTON +   PTSUNNY   73  64  74 S10G18    30.04F

$$

INZ028-029-035-036-043>045-051>053-261500-
WEST CENTRAL INDIANA

CITY           SKY/WX    TMP DP  RH WIND       PRES   REMARKS
CRAWFORDSVL +  CLOUDY    70  60  71 S14G20    29.99F
GREENCASTLE +  CLOUDY    70  61  73 S14       30.01F
LAFAYETTE      CLOUDY    70  65  84 S8        29.98F
TERRE HAUTE    CLOUDY    72  66  81 SE15G22   29.97F

$$

INZ030>032-037>040-046>048-054>057-064-065-261500-
CENTRAL INDIANA

CITY           SKY/WX    TMP DP  RH WIND       PRES   REMARKS
ANDERSON       SUNNY     73  59  60 S12G17    30.08S
CP ATTERBURY + PTSUNNY   73  64  73 S8        30.05F
COLUMBUS       MOSUNNY   73  63  68 S15       30.05F
FISHERS *+     CLOUDY    72  66  83 S13       30.04F
FRANKFORT +    PTSUNNY   74  65  73 SE10G18   30.02F
GREENWOOD *+   CLOUDY    75  63  64 S12G17    30.05S
INDIANAPOLIS   CLOUDY    72  63  73 S15       30.02F
-EAGLE CREEK   CLOUDY    71  64  78 S12G18    30.03S
KOKOMO *+      CLOUDY    72  64  78 S15G21    30.01F
MARION +       MOSUNNY   75  62  64 S16G23    30.04F
MT COMFORT *+  PTSUNNY   75  55  50 S15       30.05S
SHELBYVILLE    PTSUNNY   76  64  66 S16       30.05F
ZIONSVILLE +   CLOUDY    73  62  68 S10       30.04S

$$

INZ033-034-041-042-049-050-058-059-261500-
EAST CENTRAL INDIANA

CITY           SKY/WX    TMP DP  RH WIND       PRES   REMARKS
MUNCIE         SUNNY     75  63  66 S13G22    30.05F

$$

INZ060-061-067>069-081>083-085>088-261500-
SOUTHWEST INDIANA

CITY           SKY/WX    TMP DP  RH WIND       PRES   REMARKS
EVANSVILLE     PTSUNNY   75  66  73 S12G22    29.97F
HUNTINGBURG *+ MOSUNNY   73  64  73 S14G20    30.01F
WASHINGTON +   PTSUNNY   73  64  73 S17G23    29.98F

$$

INZ062-063-066-070>080-084-089>092-261500-
SOUTH CENTRAL AND SOUTHEAST INDIANA

CITY           SKY/WX    TMP DP  RH WIND       PRES   REMARKS
BLOOMINGTON    PTSUNNY   73  65  75 S9G20     30.02F
MADISON *+     SUNNY     75  63  64 S10       30.10F
NORTH VERNON + SUNNY     75  66  73 S10       30.08F
SEYMOUR +      MOSUNNY   77  63  61 S14       30.05F

$$



USA.gov is the U.S. government's official web portal to all federal, state and local government web resources and services.